Glasgow, MT

8:00 PM MDT on June 22, 2017 (GMT -0600)
Wokal-Glasgow International | | Change Station
Active Advisory: Lake Wind Advisory

Elev 2293 ft 48.21 °N, 106.61 °W | Updated 7 minutes ago

Overcast
Overcast
54 °F
Feels Like 54 °F
N
22
Wind Variable Wind from NW
Gusts 29 mph

Today
High -- | Low -- °F
--% Chance of Precip.
Yesterday
High -- | Low -- °F
Precip. -- in
Pressure 30.11 in
Visibility 10.0 miles
Clouds Few 2900 ft
Mostly Cloudy 3700 ft
Overcast 4400 ft
Dew Point 45 °F
Humidity 72%
Rainfall 0.00 in
Snow Depth Not available.
5:06 AM 9:10 PM
Waning Crescent, 2% visible
METAR KGGW 230153Z AUTO 32019G25KT 10SM FEW029 BKN037 OVC044 12/07 A3009 RMK AO2 PK WND 33029/0136 SLP195 T01220072
Pressure 30.11 in
Visibility 10.0 miles
Clouds Few 2900 ft
Mostly Cloudy 3700 ft
Overcast 4400 ft
Dew Point 45 °F
Humidity 72%
Rainfall 0.00 in
Snow Depth Not available.
5:06 AM 9:10 PM
Waning Crescent, 2% visible
METAR KGGW 230153Z AUTO 32019G25KT 10SM FEW029 BKN037 OVC044 12/07 A3009 RMK AO2 PK WND 33029/0136 SLP195 T01220072

Get Your Daily Forecast Email!

Thanks for signing up!

Be on the lookout for a verification email in your inbox.

You'll start receiving severe weather alerts in your inbox..

×

10-Day Weather Forecast

Almanac

Astronomy

Jun. 22, 2017 Rise Set
Actual Time
Civil Twilight
Nautical Twilight
Astronomical Twilight
Moon
Length of Visible Light
Length of Day
Tomorrow will be .
, % of the Moon is Illuminated

Today's Extremes

State Highs State Lows

Community

WunderPhotos

Category 6

Welcome to Category 6. This is the collective home for Weather Underground's featured writeups by Dr. Jeff Masters (right), Bob Henson (left), Chris Burt, and other regular contributors.

Nearby

Air Quality

  Air Quality AQ Index Pollutant
Not available.

Snow Depth

Station Depth Elevation

Earthquake Activity

City Distance Mag. Time & Date
Minimum magnitude displayed is 2.5.

Coastal Water Temperatures

Place Temperature

Stations

Nearby Weather Stations

Station Location Temp. Windchill Dew Point Humidity Wind Precip. Elev Updated Type
                   

Watches & Warnings

Lake Wind Advisory
Issued: 5:35 PM MDT Jun. 22, 2017 – National Weather Service

... Lake Wind Advisory remains in effect until 10 PM MDT this
evening for Fort Peck Lake...

* winds... northwest winds will continue to gradually decrease
through tonight.

* Timing... through 10 PM MDT this evening.

* Impacts... these winds will make open waters of the lake rough
and hazardous, and may result in high waves which may tip or
swamp smaller craft.

Precautionary/preparedness actions...

Boaters should use extreme caution if venturing onto Fort Peck
Lake. For your personal safety, avoid the open waters. Stay close
to shore or around protected areas.